CARTOSAT-2E

Last updated on Mon Jun 22 2026 00:02:52 GMT+0000 (Coordinated Universal Time)

1 42767U 17036C 26172.52324997 .00004193 00000+0 20196-3 0 9999 2 42767 97.4268 232.2553 0002199 297.1780 62.9230 15.19282669498801
UTC large
Height (km)
Speed (km/s)
/
Latitude / Longitude
Inclination (degrees)
Orbital Period (minutes)
Azimuth
Elevation
Range (km)
Doppler Factor

Next 0 passes for location: London (51.5072 / 0.1276)

No passes found over London.
CARTOSAT-2E